WetterOnline ( https://www.wetteronline.ch )

Wetter aktuell Freiburg im Breisgau

Aktuelles Wetter: Freiburg/Flugplatz (236m)

6-stündlich | Neueste Meldungen
Ortszeit Temperatur Wetter
Mo, 06.02. 13:00 4.8° C bewölkt
Mo, 06.02. 7:00 -0.1° C bewölkt
Mo, 06.02. 1:00 3.8° C leichter Regen
So, 05.02. 19:00 4.2° C Sprühregen
So, 05.02. 13:00 4.0° C Sprühregen
So, 05.02. 7:00 0.1° C bedeckt
So, 05.02. 1:00 0.1° C Nebel
Sa, 04.02. 19:00 3.5° C wolkenlos
Ortszeit Temperatur Wetter
Mo, 06.02. 17:00 3.7° C bewölkt
Mo, 06.02. 16:40 3.7° C bewölkt
Mo, 06.02. 16:30 3.7° C bedeckt
Mo, 06.02. 16:20 3.7° C bedeckt
Mo, 06.02. 16:10 3.8° C bedeckt
Mo, 06.02. 16:00 4.1° C bewölkt
Mo, 06.02. 15:50 4.1° C bewölkt
Mo, 06.02. 15:30 4.2° C bewölkt
Mo, 06.02. 15:00 4.6° C bewölkt
Mo, 06.02. 14:30 4.6° C bewölkt
Mo, 06.02. 14:00 5.0° C bewölkt
Ortszeit Relative Feuchte Sichtweite
Mo, 06.02. 13:00 67% 45 km
Mo, 06.02. 7:00 98% 3.5 km
Mo, 06.02. 1:00 95% 4.7 km
So, 05.02. 19:00 95% 9 km
So, 05.02. 13:00 93% 14 km
So, 05.02. 7:00 97% 13 km
So, 05.02. 1:00 97% 2.1 km
Sa, 04.02. 19:00 94% 23 km
Ortszeit Relative Feuchte Sichtweite
Mo, 06.02. 17:00 62% 45 km
Mo, 06.02. 16:40 64% -
Mo, 06.02. 16:30 63% 35 km
Mo, 06.02. 16:20 63% -
Mo, 06.02. 16:10 63% -
Mo, 06.02. 16:00 63% 35 km
Mo, 06.02. 15:50 63% -
Mo, 06.02. 15:30 65% 50 km
Mo, 06.02. 15:00 64% 45 km
Mo, 06.02. 14:30 65% 45 km
Mo, 06.02. 14:00 67% 40 km
Ortszeit Niederschlagsmenge Niederschlagsart
Mo, 06.02. 13:00 0.0 l/m2 in 6 Std. -
Mo, 06.02. 7:00 0.9 l/m2 in 12 Std. Regen
Mo, 06.02. 1:00 0.9 l/m2 in 6 Std. Regen
So, 05.02. 19:00 5 l/m2 in 12 Std. Regen
So, 05.02. 13:00 1 l/m2 in 6 Std. Regen
So, 05.02. 7:00 0.0 l/m2 in 12 Std. -
So, 05.02. 1:00 0.0 l/m2 in 6 Std. -
Sa, 04.02. 19:00 2 l/m2 in 12 Std. -
Ortszeit Niederschlagsmenge Niederschlagsart
Mo, 06.02. 17:00 0.0 l/m2 in 1 Std. -
Mo, 06.02. 16:40 keine Meldung -
Mo, 06.02. 16:30 0.0 l/m2 in 30 Min -
Mo, 06.02. 16:20 keine Meldung -
Mo, 06.02. 16:10 keine Meldung -
Mo, 06.02. 16:00 0.0 l/m2 in 1 Std. -
Mo, 06.02. 15:50 keine Meldung -
Mo, 06.02. 15:30 0.0 l/m2 in 30 Min -
Mo, 06.02. 15:00 0.0 l/m2 in 1 Std. -
Mo, 06.02. 14:30 0.0 l/m2 in 30 Min -
Mo, 06.02. 14:00 0.0 l/m2 in 1 Std. -
Ortszeit Stärke Spitze Richtung
km/h Bft. km/h Grad Sektor
Mo, 06.02. 13:00 9 2 19 20° N
Mo, 06.02. 7:00 2 1 11 280° W
Mo, 06.02. 1:00 7 2 11 330° NW
So, 05.02. 19:00 4 1 14 320° NW
So, 05.02. 13:00 2 1 11 320° NW
So, 05.02. 7:00 4 1 18 230° SW
So, 05.02. 1:00 4 1 7 10° N
Sa, 04.02. 19:00 0 0 18 - -
Ortszeit Stärke Spitze Richtung
km/h Bft. km/h Grad Sektor
Mo, 06.02. 17:00 9 2 24 60° NO
Mo, 06.02. 16:40 9 2 - 50° NO
Mo, 06.02. 16:30 9 2 24 50° NO
Mo, 06.02. 16:20 9 2 - 50° NO
Mo, 06.02. 16:10 11 2 - 60° NO
Mo, 06.02. 16:00 11 2 29 50° NO
Mo, 06.02. 15:50 11 2 - 50° NO
Mo, 06.02. 15:30 9 2 28 20° N
Mo, 06.02. 15:00 14 3 22 30° NO
Mo, 06.02. 14:30 13 3 22 10° N
Mo, 06.02. 14:00 11 2 22 20° N
Ortszeit Untergrenze Bedeckung Gattung
total tief tief mittel hoch
Mo, 06.02. 13:00 870 m 7/8 7/8 - - -
Mo, 06.02. 7:00 1500 m 7/8 7/8 - - -
Mo, 06.02. 1:00 150 m 8/8 8/8 - - -
So, 05.02. 19:00 480 m 7/8 7/8 - - -
So, 05.02. 13:00 690 m 7/8 7/8 - - -
So, 05.02. 7:00 1500 m 8/8 8/8 - - -
So, 05.02. 1:00 10500 m 2/8 0/8 - - -
Sa, 04.02. 19:00 - 0/8 0/8 - - -
Ortszeit Bedeckungsgrad in Achtel und Wolkenuntergrenze
Mo, 06.02. 17:00 6(960m) 7(1230m)
Mo, 06.02. 16:40 7
Mo, 06.02. 16:30 8(1200m)
Mo, 06.02. 16:20 8(1200m)
Mo, 06.02. 16:10 8
Mo, 06.02. 16:00 7(1170m)
Mo, 06.02. 15:50 7(1170m)
Mo, 06.02. 15:30 7(1200m)
Mo, 06.02. 15:00 3(840m) 7(1170m)
Mo, 06.02. 14:30 2(810m) 7(1110m)
Mo, 06.02. 14:00 7(1110m)
Ortszeit Luftdruck NN (hPa) Tendenz (hPa in 3 Std.)
Mo, 06.02. 13:00 1037 - 1,3
Mo, 06.02. 7:00 1038 0,0
Mo, 06.02. 1:00 1038 + 1,5
So, 05.02. 19:00 1036 + 0,6
So, 05.02. 13:00 1037 - 1,8
So, 05.02. 7:00 1039 - 0,1
So, 05.02. 1:00 1039 + 0,4
Sa, 04.02. 19:00 1038 + 0,9
Ortszeit Luftdruck NN (hPa) Tendenz (hPa in 3 Std.)
Mo, 06.02. 17:00 1037 + 0,2
Mo, 06.02. 16:40 1037 keine Meldung
Mo, 06.02. 16:30 1037 0,0
Mo, 06.02. 16:20 1037 keine Meldung
Mo, 06.02. 16:10 1037 keine Meldung
Mo, 06.02. 16:00 1036 - 0,6
Mo, 06.02. 15:50 1036 keine Meldung
Mo, 06.02. 15:30 1036 - 0,7
Mo, 06.02. 15:00 1036 - 1,2
Mo, 06.02. 14:30 1036 - 1,9
Mo, 06.02. 14:00 1036 - 1,8
Ortszeit Schneehöhe (cm)
Mo, 06.02. 13:00 0
Mo, 06.02. 7:00 0
Mo, 06.02. 1:00 0
So, 05.02. 19:00 0
So, 05.02. 13:00 0
So, 05.02. 7:00 0
So, 05.02. 1:00 0
Sa, 04.02. 19:00 0
Ortszeit Schneehöhe (cm)
Mo, 06.02. 17:00 0
Mo, 06.02. 16:40 0
Mo, 06.02. 16:30 0
Mo, 06.02. 16:20 0
Mo, 06.02. 16:10 0
Mo, 06.02. 16:00 0
Mo, 06.02. 15:50 0
Mo, 06.02. 15:30 0
Mo, 06.02. 15:00 0
Mo, 06.02. 14:30 0
Mo, 06.02. 14:00 0
Link zu dieser Seite / Seite empfehlen

Das Wetter in ...